Minot, ND

4:44 AM CDT on September 28, 2016 (GMT -0500)
Minot International

Weather History for KMOT - November, 2010

Change the Weather History Date:

Sunday, November 28, 2010

  Actual Average Record
Temperature  
Mean Temperature 20 °F 22 °F  
Max Temperature 24 °F 30 °F 56 °F (2002)
Min Temperature 15 °F 14 °F -12 °F (1985)
Degree Days  
Heating Degree Days 45 43  
Month to date heating degree days 1017 1009  
Since 1 July heating degree days 1772 1969  
Moisture  
Dew Point 16 °F    
Average Humidity 85    
Maximum Humidity 92    
Minimum Humidity 77    
Precipitation  
Precipitation 0.00 in 0.02 in 0.45 in (1975)
Month to date precipitation 0.22 0.72  
Year to date precipitation 20.98 16.78  
Sea Level Pressure  
Sea Level Pressure 29.70 in    
Wind  
Wind Speed 14 mph (NNW)    
Max Wind Speed 25 mph    
Max Gust Speed 30 mph    
Visibility 8 miles    
Events      
T = Trace of Precipitation, MM = Missing Value Source: NWS Daily Summary

Daily Weather History Graph

Daily Weather History Graph

Search for Another Location

Airport or City:

Trip Planner

Search our weather history database for the weather conditions in past years. The results will help you decide how hot, cold, wet, or windy it might be!

Date:

Astronomy

Nov. 28, 2010 Rise Set
Actual Time 8:11 AM CST 4:54 PM CST
Civil Twilight 7:35 AM CST 5:30 PM CST
Nautical Twilight 6:56 AM CST 6:09 PM CST
Astronomical Twilight 6:19 AM CST 6:46 PM CST
Moon No Moon Rise 12:59 PM CST
Length of Visible Light 9h 54m
Length of Day
8h 43m
Waning Gibbous, 51% of the Moon is Illuminated
Nov 28
Waning Gibbous
Nov 28
Last Quarter
Dec 5
New
Dec 13
First Quarter
Dec 21
Full

Hourly Weather History & Observations

Time (CST) Temp. Windchill Dew Point Humidity Pressure Visibility Wind Dir Wind Speed Gust Speed Precip Events Conditions
12:54 AM 21.0 °F 14.6 °F 17.1 °F 85% 29.71 in 9.0 mi NNW 4.6 mph - N/A   Overcast
1:54 AM 17.1 °F 6.6 °F 15.1 °F 92% 29.70 in 6.0 mi North 8.1 mph - N/A   Scattered Clouds
2:54 AM 17.1 °F 5.8 °F 12.9 °F 84% 29.68 in 9.0 mi NNW 9.2 mph - N/A   Partly Cloudy
3:54 AM 16.0 °F 5.3 °F 12.9 °F 88% 29.69 in 10.0 mi NW 8.1 mph - N/A   Overcast
4:54 AM 18.0 °F 7.7 °F 14.0 °F 84% 29.70 in 10.0 mi NNW 8.1 mph - N/A   Overcast
5:54 AM 19.9 °F 7.9 °F 16.0 °F 85% 29.69 in 10.0 mi NW 11.5 mph - N/A   Overcast
6:54 AM 19.9 °F 9.3 °F 16.0 °F 85% 29.69 in 9.0 mi NNW 9.2 mph - N/A   Overcast
7:54 AM 19.9 °F 10.1 °F 16.0 °F 85% 29.69 in 10.0 mi NNW 8.1 mph - N/A   Mostly Cloudy
8:54 AM 18.0 °F 6.9 °F 15.1 °F 88% 29.69 in 7.0 mi NNW 9.2 mph - N/A   Clear
9:54 AM 19.9 °F 7.9 °F 16.0 °F 85% 29.68 in 8.0 mi NNW 11.5 mph - N/A   Clear
10:54 AM 21.9 °F 9.8 °F 17.1 °F 82% 29.69 in 9.0 mi NNW 12.7 mph - N/A   Clear
11:54 AM 21.9 °F 9.2 °F 17.1 °F 82% 29.65 in 8.0 mi NNW 13.8 mph - N/A   Clear
12:54 PM 23.0 °F 10.6 °F 18.0 °F 81% 29.66 in 9.0 mi NNW 13.8 mph - N/A   Clear
1:54 PM 23.0 °F 8.7 °F 18.0 °F 81% 29.65 in 9.0 mi North 18.4 mph - N/A   Clear
2:54 PM 23.0 °F 9.6 °F 18.0 °F 81% 29.66 in 10.0 mi North 16.1 mph - N/A   Mostly Cloudy
3:23 PM 21.2 °F 5.6 °F 17.6 °F 86% 29.58 in 10.0 mi North 20.7 mph 26.5 mph N/A   Scattered Clouds
3:54 PM 21.9 °F 7.8 °F 17.1 °F 82% 29.69 in 10.0 mi North 17.3 mph 24.2 mph N/A   Scattered Clouds
4:07 PM 21.2 °F 6.8 °F 17.6 °F 86% 29.61 in 10.0 mi North 17.3 mph - N/A   Mostly Cloudy
4:54 PM 19.9 °F 5.2 °F 16.0 °F 85% 29.73 in 10.0 mi North 17.3 mph - N/A   Overcast
5:54 PM 19.0 °F 3.6 °F 15.1 °F 85% 29.74 in 9.0 mi North 18.4 mph - N/A   Overcast
6:27 PM 19.4 °F 3.6 °F 14.0 °F 80% 29.67 in 10.0 mi North 19.6 mph 28.8 mph N/A   Overcast
6:54 PM 19.0 °F 4.0 °F 14.0 °F 81% 29.77 in 10.0 mi North 17.3 mph - N/A   Overcast
7:04 PM 19.4 °F 5.0 °F 14.0 °F 80% 29.69 in 10.0 mi North 16.1 mph - N/A   Overcast
7:54 PM 19.0 °F 4.0 °F 15.1 °F 85% 29.79 in 10.0 mi NNW 17.3 mph - N/A   Overcast
8:02 PM 19.4 °F 4.1 °F 15.8 °F 86% 29.70 in 10.0 mi North 18.4 mph 24.2 mph N/A   Overcast
8:54 PM 19.0 °F 1.6 °F 15.1 °F 85% 29.79 in 6.0 mi North 24.2 mph 29.9 mph N/A   Overcast
9:54 PM 17.6 °F 0.9 °F 15.8 °F 93% 29.72 in 3.0 mi North 20.7 mph 27.6 mph N/A   Overcast
10:10 PM 17.6 °F 0.9 °F 15.8 °F 93% 29.73 in 2.5 mi North 20.7 mph 29.9 mph N/A   Overcast
10:19 PM 17.6 °F 0.5 °F 15.8 °F 93% 29.73 in 3.0 mi North 21.9 mph - N/A   Overcast
10:54 PM 18.0 °F 2.2 °F 15.1 °F 88% 29.82 in 3.0 mi NNW 18.4 mph 27.6 mph N/A   Overcast
11:54 PM 18.0 °F 1.7 °F 14.0 °F 84% 29.83 in 10.0 mi NNW 19.6 mph 26.5 mph N/A   Overcast